Simultaneous Nadir Overpasses (SNOs) Predictions

Prediction of SNOs between FY3D and NOAA-19 Satellite Orbit:

Table of predicted SNOs for the next 14.0 days since TLE Epoch: 4/17/2021
Index Date (FY3D) Time (FY3D) Lat,Lon (FY3D) SZA (FY3D ) Date (NOAA-19) Time (NOAA-19) Lat,Lon (NOAA-19) SZA (NOAA-19 ) Distance(km) Time Diff (sec)
1 04/25/2021 17:25:49 78.62,-107.16 66.28 04/25/2021 17:24:39 78.61,-107.01 66.28 3.51 70
2 04/25/2021 18:16:33 -78.61, 60.20 113.75 04/25/2021 18:15:40 -78.61, 60.28 113.73 1.77 53
3 04/25/2021 19:07:18 78.62,-132.54 66.26 04/25/2021 19:06:39 78.62,-132.41 66.26 2.75 39
4 04/25/2021 19:58:02 -78.61, 34.82 113.77 04/25/2021 19:57:40 -78.63, 34.87 113.75 2.03 22
5 04/25/2021 20:48:47 78.62,-157.92 66.23 04/25/2021 20:48:39 78.63,-157.82 66.24 2.70 8
6 04/25/2021 21:39:31 -78.61, 9.45 113.79 04/25/2021 21:39:40 -78.64, 9.47 113.77 3.06 9
7 04/25/2021 22:30:16 78.62, 176.71 66.21 04/25/2021 22:30:39 78.65, 176.78 66.22 3.38 23
8 04/25/2021 23:21:01 -78.65, -16.16 113.76 04/25/2021 23:21:41 -78.62, -16.18 113.80 3.69 40
9 04/26/2021 00:11:46 78.66, 151.09 66.25 04/26/2021 00:12:40 78.63, 151.13 66.19 3.78 54
10 04/26/2021 01:02:30 -78.65, -41.54 113.78 04/26/2021 01:03:41 -78.63, -41.59 113.82 2.57 71



Historial Predications of SNOs between FY3D and NOAA-19
